Location: Recife
(8.0585°S, 34.8848°W)
Time: 11:44:04
(UTC-03:00)

Hubble Space Telescope - Pass Details

Date: 24 September 2021
Orbit: 535 x 539 km, 28.5° (Epoch: 26 October)

Event Time Altitude Azimuth Distance (km) Brightness Sun altitude
Rises 04:37:44 0° 217° (SW) 2,682 4.0 -8.3°
Reaches altitude 10° 04:41:00 10° 190° (S) 1,789 3.4 -7.5°
Maximum altitude 04:43:08 14° 159° (SSE) 1,565 3.4 -6.9°
Drops below altitude 10° 04:45:16 10° 128° (SE) 1,785 4.3 -6.4°
Sets 04:48:31 0° 101° (E) 2,672 6.6 -5.6°
